Flag for Germany Weather past 2 weeks in Rheinberg, North Rhine-Westphalia, Germany

Now
56 °F

Overcast.


Feels Like: 55 °F
Forecast: 50 / 57 °F
Wind: 6 mph from South

Location: Duesseldorf

Current Time: Oct 24, 2014 at 3:56:53 PM

Latest Report: Oct 24, 2014 at 3:00 PM


Visibility: 34 mi

Pressure: 30.11 "Hg

Humidity: 71%

Dew point: 47 °F

Location of RheinbergLocation

Historic Weather in Rheinberg — Graph

°F

Rheinberg temperature yesterday

Maximum temperature yesterday: 56 °F (at 4:00 PM)
Minimum temperature yesterday: 48 °F (at 3:00 AM)
Average temperature yesterday: 52 °F

Past Weeks' High & Low Weather Summary

 TemperatureHumidityPressure
High74 °F (Oct 19, 2:00 PM)99% (Oct 11, 8:00 AM)30.24 "Hg (Oct 11, 8:00 AM)
Low44 °F (Oct 21, 11:00 PM)54% (Oct 14, 3:00 PM)29.50 "Hg (Oct 21, 4:00 PM)
Average57 °F81%29.91 "Hg
* Reported Oct 9 2:00 PM — Oct 24 2:00 PM, Rheinberg, Weather by CustomWeather, © 2014

Note: Actual official high and low records may vary slightly from our data, if they occured in-between our weather recording intervals... More about our weather records

Advertising

Rheinberg weather history for previous 24 hours

 ConditionsComfort  
Time TempWeatherWind HumidityBarometerVisibility
2:00 PM
Oct 24
55 °FOvercast.7 mph72%30.13 "Hg31 mi
1:00 PM56 °FOvercast.7 mph72%30.15 "Hg25 mi
12:00 PM54 °FOvercast.6 mph72%30.16 "Hg25 mi
10:00 AM54 °FOvercast.5 mph74%30.16 "Hg22 mi
9:00 AM53 °FOvercast.5 mph80%30.16 "Hg14 mi
8:00 AM53 °FOvercast.6 mph80%30.16 "Hg16 mi
7:00 AM53 °FOvercast.5 mph79%30.16 "Hg19 mi
6:00 AM53 °FOvercast.3 mph80%30.16 "Hg19 mi
5:00 AM53 °FOvercast.5 mph81%30.16 "Hg19 mi
4:00 AM53 °FOvercast.3 mph82%30.17 "Hg19 mi
3:00 AM54 °FOvercast.3 mph81%30.18 "Hg19 mi
2:00 AM53 °FOvercast.3 mph83%30.19 "Hg12 mi
1:00 AM53 °FOvercast.3 mph84%30.20 "Hg12 mi
12:00 AM54 °FOvercast.3 mph83%30.20 "Hg12 mi
10:00 PM
Oct 23
55 °FOvercast.5 mph79%30.20 "Hg12 mi
9:00 PM55 °FOvercast.5 mph79%30.20 "Hg12 mi
8:00 PM55 °FOvercast.5 mph79%30.20 "Hg12 mi
7:00 PM55 °FOvercast.5 mph77%30.19 "Hg12 mi
6:00 PM55 °FOvercast.5 mph77%30.19 "Hg14 mi
4:00 PM56 °FOvercast.6 mph77%30.21 "Hg12 mi
3:00 PM55 °FOvercast.5 mph79%30.21 "Hg12 mi
Weather by CustomWeather, © 2014

See weather overviewHow to use our weather pages